Regional Weather Roundup
Issued by NWS Charleston, WV

Home | Current Version | Previous Version | Text Only | Print | Product List | Glossary On
Versions: 1 2 3 4 5 6 7 8 9 10 11 12 13 14 15 16 17 18 19 20 21 22 23 24 25 26 27 28 29 30 31 32 33 34 35 36 37 38 39 40 41 42 43 44 45 46 47 48 49 50
000
ASUS41 KRLX 060610
RWRRLX
West Virginia Regional Weather Roundup
National Weather Service Charleston WV
100 AM EST FRI MAR 06 2015

Note: "fair" indicates few or no clouds below 12,000 feet with no
significant weather and/or obstructions to visibility.

WVZ003-060700-
Northern Panhandle of West Virginia

CITY           SKY/WX    TMP DP  RH WIND       PRES   REMARKS
WHEELING       PTCLDY     4  -1  80 CALM      30.47F
$$

WVZ009-060700-
Northwest West Virginia

CITY           SKY/WX    TMP DP  RH WIND       PRES   REMARKS
PARKERSBURG    PTCLDY     7   3  84 CALM      30.55S
$$

WVZ006-060700-
Western West Virginia

CITY           SKY/WX    TMP DP  RH WIND       PRES   REMARKS
HUNTINGTON     FOG        8   6  92 CALM      30.52S VSB 1/4
$$

WVZ015-060700-
West Central West Virginia

CITY           SKY/WX    TMP DP  RH WIND       PRES   REMARKS
CHARLESTON     CLOUDY    15   9  76 CALM      30.49S
$$

WVZ022-031-060700-
North Central West Virginia

CITY           SKY/WX    TMP DP  RH WIND       PRES   REMARKS
CLARKSBURG     PTCLDY     5   2  87 CALM      30.47S
MORGANTOWN     PTCLDY     4  -3  73 CALM      30.47S
$$

WVZ025-035-042-045-060700-
Southern West Virginia

CITY           SKY/WX    TMP DP  RH WIND       PRES   REMARKS
BECKLEY        MOCLDY     7   2  80 N7        30.33F WCI  -5
LOGAN          NOT AVBL
BLUEFIELD      CLOUDY    12   5  73 VRB6      30.30F WCI   3
LEWISBURG      PTCLDY    10   5  82 CALM      30.33S
$$

WVZ047-060700-
Northern Mountains of West Virginia

CITY           SKY/WX    TMP DP  RH WIND       PRES   REMARKS
ELKINS         CLOUDY     6   2  83 CALM      30.39F
$$

WVZ052-060700-
Eastern Panhandle of West Virginia

CITY           SKY/WX    TMP DP  RH WIND       PRES   REMARKS
MARTINSBURG    PTCLDY    12   0  58 NW7       30.46F WCI   1
PETERSBURG       N/A    N/A N/A N/A MISG        N/A
$$



USA.gov is the U.S. government's official web portal to all federal, state and local government web resources and services.